Location: Newark
(51.3318°N, 0.0053°E)
Time: 22:04:34
(UTC+00:00)

DIWATA 2B (PO-101) - Pass Details

Date: 10 July 2022
Orbit: 583 x 599 km, 98.0° (Epoch: 16 August)

Event Time Altitude Azimuth Distance (km) Brightness Sun altitude
Exits shadow 01:18:47 11° 146° (SE) 1,856 ? -14.7°
Maximum altitude 01:22:40 54° 70° (ENE) 736 ? -14.5°
Drops below altitude 10° 01:26:48 10° 354° (N) 1,949 ? -14.3°
Sets 01:29:00 0° 350° (N) 2,855 ? -14.2°
